GW6498 Weather Reports


time (UTC)temp
F
wind
direction
speed
knots
gust
knots
rain 1hr
in
rain 24hr
in
rain mn
in
humidity
%
barometer
mb
20260506033917 48 130 0.0 0.9 0.00 0.00 0.00 53 1010.0
20260506033414 48 156 0.0 0.9 0.00 0.00 0.00 52 1010.0
20260506032911 48 163 0.0 0.9 0.00 0.00 0.00 51 1009.9
20260506032408 48 156 0.0 0.9 0.00 0.00 0.00 52 1009.9
20260506031905 48 160 0.9 1.7 0.00 0.00 0.00 53 1009.8
20260506031402 48 159 0.9 2.6 0.00 0.00 0.00 54 1009.5
20260506030859 49 167 0.9 1.7 0.00 0.00 0.00 53 1009.5
20260506030358 49 214 1.7 1.7 0.00 0.00 0.00 51 1009.4
20260506025854 49 147 0.9 1.7 0.00 0.00 0.00 50 1009.5
20260506025351 49 157 0.9 1.7 0.00 0.00 0.00 50 1009.3
20260506024848 49 174 0.9 0.9 0.00 0.00 0.00 51 1009.4
20260506024345 49 177 0.0 0.9 0.00 0.00 0.00 51 1009.2
20260506023840 49 167 0.0 0.0 0.00 0.00 0.00 52 1009.2
20260506023338 49 203 0.0 0.0 0.00 0.00 0.00 52 1009.3
20260506022834 49 172 0.0 0.0 0.00 0.00 0.00 51 1009.2
20260506022332 49 164 0.0 0.9 0.00 0.00 0.00 50 1009.2
20260506021830 49 215 0.9 1.7 0.00 0.00 0.00 50 1008.9
20260506021327 50 180 0.0 0.9 0.00 0.00 0.00 49 1009.0
20260506020823 50 171 0.9 1.7 0.00 0.00 0.00 48 1009.0
20260506020321 50 160 0.0 1.7 0.00 0.00 0.00 48 1009.0
20260506015819 50 151 0.9 0.9 0.00 0.00 0.00 48 1008.9
20260506015316 50 164 0.0 0.9 0.00 0.00 0.00 47 1008.8
20260506014812 51 150 0.0 0.0 0.00 0.00 0.00 46 1008.8
20260506014309 51 226 0.9 0.9 0.00 0.00 0.00 44 1008.7
20260506013806 51 170 0.0 0.9 0.00 0.00 0.00 45 1008.5
20260506013303 51 156 0.9 1.7 0.00 0.00 0.00 43 1008.3
20260506012800 51 276 0.9 1.7 0.00 0.00 0.00 43 1008.4
20260506012257 51 157 0.0 0.9 0.00 0.00 0.00 43 1008.2
20260506011754 52 179 0.9 1.7 0.00 0.00 0.00 43 1008.0
20260506011250 52 168 0.0 0.9 0.00 0.00 0.00 44 1008.0
20260506010748 52 260 0.9 1.7 0.00 0.00 0.00 42 1008.1
20260506010245 52 278 0.9 2.6 0.00 0.00 0.00 41 1008.1
20260506005743 52 149 0.9 1.7 0.00 0.00 0.00 41 1008.0
20260506005239 52 177 1.7 2.6 0.00 0.00 0.00 40 1008.2
20260506004735 53 283 1.7 3.5 0.00 0.00 0.00 40 1008.1
20260506004233 53 149 1.7 2.6 0.00 0.00 0.00 40 1007.8
20260506003729 53 325 2.6 5.2 0.00 0.00 0.00 38 1007.9
20260506003226 53 146 2.6 3.5 0.00 0.00 0.00 38 1007.7
20260506002721 53 210 3.5 6.1 0.00 0.00 0.00 37 1007.8
20260506002218 54 279 3.5 5.2 0.00 0.00 0.00 38 1007.6
20260506001714 54 348 3.5 7.0 0.00 0.00 0.00 37 1007.6
20260506001212 54 283 4.3 6.1 0.00 0.00 0.00 37 1007.6
20260506000708 54 350 4.3 7.0 0.00 0.00 0.00 37 1007.7
20260506000206 54 317 4.3 7.8 0.00 0.00 0.00 37 1007.8
20260505235703 54 298 3.5 6.1 0.00 0.00 0.00 38 1007.7
20260505235201 54 266 2.6 3.5 0.00 0.00 0.00 38 1007.6
20260505234657 54 266 1.7 3.5 0.00 0.00 0.00 38 1008.0
20260505234155 55 175 2.6 3.5 0.00 0.00 0.00 38 1007.9
20260505233651 55 118 1.7 7.8 0.00 0.00 0.00 38 1007.8
20260505233149 55 186 2.6 5.2 0.00 0.00 0.00 37 1007.8
20260505232646 55 193 0.9 7.0 0.00 0.00 0.00 37 1007.7
20260505232144 55 163 1.7 5.2 0.00 0.00 0.00 38 1007.8
20260505231640 56 297 4.3 8.7 0.00 0.00 0.00 35 1007.9
20260505231139 55 224 3.5 8.7 0.00 0.00 0.00 36 1007.9
20260505230637 55 319 3.5 7.8 0.00 0.00 0.00 37 1007.8
20260505230133 55 266 1.7 7.0 0.00 0.00 0.00 37 1008.0
20260505225629 55 167 1.7 3.5 0.00 0.00 0.00 38 1008.1
20260505225126 55 302 4.3 7.8 0.00 0.00 0.00 36 1007.9
20260505224622 55 256 2.6 6.1 0.00 0.00 0.00 37 1008.1
20260505224120 55 261 2.6 5.2 0.00 0.00 0.00 36 1007.9
20260505223617 55 115 5.2 7.0 0.00 0.00 0.00 35 1008.2
20260505223113 55 229 2.6 5.2 0.00 0.00 0.00 36 1008.2
20260505222609 55 195 3.5 6.1 0.00 0.00 0.00 36 1008.1
20260505222105 55 292 2.6 3.5 0.00 0.00 0.00 36 1008.2
20260505221602 55 141 3.5 9.6 0.00 0.00 0.00 36 1008.1
20260505221058 55 235 5.2 9.6 0.00 0.00 0.00 35 1008.0
20260505220556 55 242 3.5 7.8 0.00 0.00 0.00 35 1008.1
20260505220054 55 234 2.6 7.0 0.00 0.00 0.00 35 1008.1
20260505215552 55 21 2.6 6.1 0.00 0.00 0.00 34 1008.2
20260505215049 55 202 5.2 9.6 0.00 0.00 0.00 35 1008.1
20260505214547 55 340 1.7 2.6 0.00 0.00 0.00 36 1008.2
20260505214044 55 309 2.6 7.8 0.00 0.00 0.00 35 1008.1
20260505213542 55 239 4.3 7.0 0.00 0.00 0.00 35 1008.3
20260505213037 55 263 4.3 7.8 0.00 0.00 0.00 34 1008.4
20260505212534 55 214 4.3 5.2 0.00 0.00 0.00 35 1008.2
20260505212031 55 182 2.6 3.5 0.00 0.00 0.00 34 1008.2
20260505211529 55 264 3.5 7.0 0.00 0.00 0.00 34 1008.2
20260505211025 55 286 4.3 7.8 0.00 0.00 0.00 34 1008.2
20260505210522 56 288 6.1 8.7 0.00 0.00 0.00 33 1008.1
20260505210019 56 224 2.6 6.1 0.00 0.00 0.00 34 1008.2
20260505205517 56 214 6.1 8.7 0.00 0.00 0.00 34 1008.2
20260505205014 56 334 3.5 6.1 0.00 0.00 0.00 34 1008.4
20260505204512 56 293 7.0 8.7 0.00 0.00 0.00 33 1008.4
20260505204009 56 200 4.3 7.0 0.00 0.00 0.00 34 1008.3
20260505203505 56 298 6.1 8.7 0.00 0.00 0.00 34 1008.3
20260505203001 56 297 6.1 7.8 0.00 0.00 0.00 33 1008.3
20260505202458 56 263 3.5 5.2 0.00 0.00 0.00 34 1008.5
20260505201954 55 197 3.5 7.8 0.00 0.00 0.00 34 1008.5
20260505201451 55 329 6.1 11.3 0.00 0.00 0.00 32 1008.3
20260505200949 56 298 4.3 9.6 0.00 0.00 0.00 33 1008.5
20260505200447 55 205 4.3 7.8 0.00 0.00 0.00 33 1008.7
20260505195942 55 6 4.3 8.7 0.00 0.00 0.00 32 1008.7
20260505195439 55 196 3.5 7.8 0.00 0.00 0.00 33 1008.7
20260505194937 55 297 4.3 8.7 0.00 0.00 0.00 32 1008.5
20260505194434 55 210 3.5 6.1 0.00 0.00 0.00 32 1008.7
20260505193934 55 104 1.7 7.8 0.00 0.00 0.00 32 1008.7
20260505193432 55 231 6.1 9.6 0.00 0.00 0.00 31 1008.7
20260505192929 55 204 3.5 7.0 0.00 0.00 0.00 31 1008.7
20260505192427 56 277 2.6 7.0 0.00 0.00 0.00 31 1008.8
20260505191925 55 343 7.0 9.6 0.00 0.00 0.00 31 1008.6
20260505191423 55 251 3.5 8.7 0.00 0.00 0.00 31 1008.7
20260505190920 55 347 3.5 9.6 0.00 0.00 0.00 32 1008.7
20260505190415 56 252 4.3 9.6 0.00 0.00 0.00 29 1008.8
20260505185910 56 180 1.7 6.1 0.00 0.00 0.00 29 1008.9
20260505185408 56 195 5.2 11.3 0.00 0.00 0.00 30 1008.6
20260505184904 56 351 5.2 11.3 0.00 0.00 0.00 29 1008.8
20260505184401 56 170 7.8 8.7 0.00 0.00 0.00 30 1008.9
20260505183858 56 156 2.6 8.7 0.00 0.00 0.00 30 1008.7
20260505183355 56 252 3.5 7.8 0.00 0.00 0.00 34 1008.7
20260505182851 56 254 4.3 8.7 0.00 0.00 0.00 31 1008.8
20260505182348 56 335 6.1 8.7 0.00 0.00 0.00 31 1008.5
20260505181845 57 260 5.2 11.3 0.00 0.00 0.00 30 1008.5
20260505181342 56 233 2.6 7.0 0.00 0.00 0.00 32 1008.6
20260505180839 55 190 0.9 5.2 0.00 0.00 0.00 33 1008.4
20260505180335 56 7 9.6 11.3 0.00 0.00 0.00 30 1008.8
20260505175832 56 190 2.6 6.1 0.00 0.00 0.00 32 1008.5
20260505175328 57 184 2.6 7.0 0.00 0.00 0.00 30 1008.6
20260505174825 58 336 3.5 7.8 0.00 0.00 0.00 29 1008.7
20260505174322 56 305 3.5 5.2 0.00 0.00 0.00 32 1008.6
20260505173818 56 273 6.1 8.7 0.00 0.00 0.00 32 1008.6
20260505173314 55 258 3.5 7.8 0.00 0.00 0.00 32 1008.5
20260505172812 56 334 5.2 7.0 0.00 0.00 0.00 31 1008.5
20260505172310 56 299 5.2 8.7 0.00 0.00 0.00 32 1008.4
20260505171804 55 285 2.6 5.2 0.00 0.00 0.00 33 1008.3
20260505171301 56 300 4.3 11.3 0.00 0.00 0.00 35 1008.2
20260505170757 56 334 1.7 3.5 0.00 0.00 0.00 35 1008.3
20260505170255 56 325 6.1 11.3 0.00 0.00 0.00 33 1008.4
20260505165750 55 139 2.6 8.7 0.00 0.00 0.00 34 1008.2
20260505165246 55 232 3.5 11.3 0.00 0.00 0.00 34 1008.2
20260505164742 55 302 6.1 8.7 0.00 0.00 0.00 35 1008.3
20260505164239 55 144 1.7 7.0 0.00 0.00 0.00 37 1008.5
20260505163737 54 185 2.6 7.0 0.00 0.00 0.00 37 1008.6
20260505163236 54 283 5.2 7.8 0.00 0.00 0.00 40 1008.5
20260505162732 54 268 2.6 7.8 0.00 0.00 0.00 38 1008.7
20260505162229 53 300 3.5 6.1 0.00 0.00 0.00 39 1008.6
20260505161726 53 301 4.3 7.8 0.00 0.00 0.00 39 1008.7
20260505161224 53 57 1.7 6.1 0.00 0.00 0.00 39 1008.6
20260505160721 53 202 1.7 6.1 0.00 0.00 0.00 41 1008.4
20260505160219 52 295 3.5 8.7 0.00 0.00 0.00 40 1008.3
20260505153158 53 222 3.5 7.0 0.00 0.00 0.00 41 1008.1
20260505152655 53 283 6.1 7.8 0.00 0.00 0.00 38 1007.9
20260505152150 52 125 2.6 6.1 0.00 0.00 0.00 40 1007.9
20260505151646 52 302 3.5 7.0 0.00 0.00 0.00 39 1008.0
20260505151144 52 314 5.2 8.7 0.00 0.00 0.00 39 1008.1
20260505150639 52 304 5.2 8.7 0.00 0.00 0.00 37 1007.9
20260505150137 52 231 3.5 8.7 0.00 0.00 0.00 37 1008.3
20260505140605 50 168 1.7 5.2 0.00 0.00 0.00 50 1008.2
20260505125019 48 176 0.9 3.5 0.00 0.00 0.00 59 1008.5
20260505124515 48 151 0.9 1.7 0.00 0.00 0.00 61 1008.3
20260505124012 48 149 0.0 0.0 0.00 0.00 0.00 64 1008.1
20260505123508 48 163 0.0 0.0 0.00 0.00 0.00 64 1008.2
20260505123004 47 180 0.9 1.7 0.00 0.00 0.00 63 1008.3
20260505122502 47 170 0.0 0.9 0.00 0.00 0.00 63 1008.2
20260505121958 47 162 0.0 0.9 0.00 0.00 0.00 66 1008.1
20260505121455 46 207 0.9 0.9 0.00 0.00 0.00 67 1008.5
20260505120951 46 297 1.7 2.6 0.00 0.00 0.00 66 1008.2
20260505120448 47 161 0.0 0.0 0.00 0.00 0.00 66 1008.1
20260505115947 46 189 0.9 2.6 0.00 0.00 0.00 63 1008.2
20260505115443 46 144 0.0 0.9 0.00 0.00 0.00 64 1007.7
20260505114941 46 153 0.0 0.9 0.00 0.00 0.00 64 1007.7
20260505114432 46 148 0.0 0.9 0.00 0.00 0.00 65 1008.1
20260505113928 46 144 0.0 1.7 0.00 0.00 0.00 65 1008.4
20260505113425 46 156 1.7 2.6 0.00 0.00 0.00 65 1008.1
20260505112921 46 215 0.9 2.6 0.00 0.00 0.00 65 1007.4
20260505112419 46 292 2.6 3.5 0.00 0.00 0.00 67 1007.5
20260505111914 46 180 0.9 0.9 0.00 0.00 0.00 68 1007.3
20260505111409 46 163 0.0 0.0 0.00 0.00 0.00 66 1006.6
20260505110906 46 154 0.0 0.9 0.00 0.00 0.00 67 1006.6
20260505110403 46 160 0.0 0.9 0.00 0.00 0.00 67 1007.0
20260505101833 48 231 1.7 3.5 0.00 0.00 0.00 55 1007.2
20260505101328 48 268 2.6 6.1 0.00 0.00 0.00 54 1007.1
20260505100824 48 169 0.9 2.6 0.00 0.00 0.00 56 1006.4
20260505100321 48 288 4.3 7.0 0.00 0.00 0.00 55 1006.4
20260505095817 48 315 1.7 2.6 0.00 0.00 0.00 56 1005.6
20260505095315 48 13 1.7 5.2 0.00 0.00 0.00 55 1005.4
20260505094810 49 158 0.0 3.5 0.00 0.00 0.00 55 1005.2
20260505094308 49 156 0.9 2.6 0.00 0.00 0.00 55 1005.3
20260505093803 49 47 1.7 2.6 0.00 0.00 0.00 54 1005.3
20260505093301 49 123 0.9 2.6 0.00 0.00 0.00 53 1005.3
20260505092757 49 151 1.7 2.6 0.00 0.00 0.00 53 1005.5
20260505092256 50 177 0.9 3.5 0.00 0.00 0.00 53 1005.4
20260505091753 50 157 1.7 3.5 0.00 0.00 0.00 52 1005.4
20260505091251 50 284 1.7 3.5 0.00 0.00 0.00 52 1005.4
20260505090749 50 214 4.3 7.0 0.00 0.00 0.00 53 1005.5
20260505090246 50 186 3.5 6.1 0.00 0.00 0.00 53 1005.2
20260505085744 50 312 0.9 6.1 0.00 0.00 0.00 54 1005.2
20260505085242 50 315 4.3 7.0 0.00 0.00 0.00 54 1005.1
20260505084738 49 327 5.2 7.0 0.00 0.00 0.00 57 1004.8
20260505084238 50 52 3.5 5.2 0.00 0.00 0.00 57 1004.5
20260505083734 50 265 2.6 5.2 0.00 0.00 0.00 56 1004.7
20260505083231 50 229 3.5 7.8 0.00 0.00 0.00 55 1004.6
20260505082727 50 52 1.7 2.6 0.00 0.00 0.00 56 1004.5
20260505082224 51 163 2.6 3.5 0.00 0.00 0.00 56 1004.5
20260505081720 51 42 1.7 6.1 0.00 0.00 0.00 54 1004.3
20260505081218 51 5 1.7 7.0 0.00 0.00 0.00 55 1004.0
20260505080715 51 305 5.2 6.1 0.00 0.00 0.00 55 1004.1
20260505080210 51 272 3.5 6.1 0.00 0.00 0.00 55 1003.8
20260505075706 51 290 3.5 5.2 0.00 0.00 0.00 55 1003.6
20260505075203 52 175 0.9 5.2 0.00 0.00 0.00 55 1003.3
20260505074700 52 317 2.6 3.5 0.00 0.00 0.00 54 1003.5
20260505074157 52 278 2.6 3.5 0.00 0.00 0.00 52 1003.6
20260505073655 52 207 2.6 3.5 0.00 0.00 0.00 51 1003.5
20260505073153 52 227 0.9 5.2 0.00 0.00 0.00 51 1003.5
20260505072648 52 301 2.6 3.5 0.00 0.00 0.00 51 1003.4
20260505072145 52 241 1.7 2.6 0.00 0.00 0.00 52 1003.3
20260505071640 52 239 1.7 3.5 0.00 0.00 0.00 52 1003.1
20260505071139 52 143 1.7 5.2 0.00 0.00 0.00 52 1003.0
20260505070635 52 130 1.7 2.6 0.00 0.00 0.00 53 1003.0
20260505070132 52 290 3.5 5.2 0.00 0.00 0.00 53 1002.6
20260505065628 52 13 0.9 6.1 0.00 0.00 0.00 53 1002.7
20260505065124 53 167 0.9 3.5 0.00 0.00 0.00 52 1002.5
20260505064621 53 175 1.7 5.2 0.00 0.00 0.00 51 1002.5
20260505064120 53 296 3.5 3.5 0.00 0.00 0.00 51 1002.3
20260505063617 53 313 1.7 2.6 0.00 0.00 0.00 50 1002.3
20260505063113 54 267 2.6 3.5 0.00 0.00 0.00 50 1002.3
20260505062609 54 284 3.5 6.1 0.00 0.00 0.00 49 1002.1
20260505062107 53 290 3.5 5.2 0.00 0.00 0.00 51 1002.3
20260505061604 53 262 3.5 5.2 0.00 0.00 0.00 53 1002.1
20260505061102 54 271 2.6 6.1 0.00 0.00 0.00 54 1002.2
20260505060559 54 48 1.7 6.1 0.00 0.00 0.00 53 1002.3
20260505060056 55 276 2.6 3.5 0.00 0.00 0.00 51 1002.3
20260505055551 55 121 1.7 3.5 0.00 0.00 0.00 49 1002.2
20260505055048 55 251 3.5 3.5 0.00 0.00 0.00 48 1002.0
20260505054545 55 301 2.6 3.5 0.00 0.00 0.00 48 1002.1
20260505054043 55 296 2.6 3.5 0.00 0.00 0.00 48 1002.0
20260505053540 55 164 0.9 2.6 0.00 0.00 0.00 49 1002.0
20260505053037 55 330 3.5 6.1 0.00 0.00 0.00 48 1002.0
20260505052534 55 284 2.6 3.5 0.00 0.00 0.00 48 1002.0
20260505052031 55 293 1.7 2.6 0.00 0.00 0.00 49 1001.8
20260505051528 55 322 1.7 3.5 0.00 0.00 0.00 49 1001.8
20260505051026 55 278 0.9 2.6 0.00 0.00 0.00 48 1001.9
20260505050524 55 242 1.7 2.6 0.00 0.00 0.00 49 1001.8
20260505041451 59 300 3.5 5.2 0.00 0.02 0.02 43 1001.4
20260505040949 60 221 3.5 6.1 0.00 0.02 0.02 42 1001.2
20260505040446 60 304 2.6 7.0 0.00 0.02 0.02 42 1001.1
20260505035943 60 154 4.3 6.1 0.00 0.02 0.02 43 1001.1
20260505035439 60 161 0.9 3.5 0.00 0.02 0.02 43 1001.2
20260505034936 60 291 0.9 6.1 0.00 0.02 0.02 44 1001.3
20260505034432 60 154 0.9 5.2 0.00 0.02 0.02 45 1001.1